KUIPER-00093

Last updated on Sat Aug 16 2025 00:02:06 GMT+0000 (Coordinated Universal Time)

1 64838U 25151Y 25227.46766256 .00023157 00000+0 66363-3 0 9997 2 64838 51.8795 142.0328 0005141 254.8397 105.2021 15.35790673 4635
UTC large
Height (km)
Speed (km/s)
/
Latitude / Longitude
Inclination (degrees)
Orbital Period (minutes)
Azimuth
Elevation
Range (km)
Doppler Factor

Next 0 passes for location: London (51.5072 / 0.1276)

Sorry there are no passes over London.